Simultaneous Nadir Overpasses (SNOs) Predictions

Prediction of SNOs between NOAA-19 and METOP-C Satellite Orbit:

Table of predicted SNOs for the next 14.0 days since TLE Epoch: 8/16/2019
Index Date (NOAA-19) Time (NOAA-19) Lat,Lon (NOAA-19) SZA (NOAA-19 ) Date (METOP-C) Time (METOP-C) Lat,Lon (METOP-C) SZA (METOP-C ) Distance(km) Time Diff (sec)
1 08/25/2019 13:44:39 79.44, -9.00 69.12 08/25/2019 13:45:34 79.44, -8.92 69.14 1.84 55
2 08/25/2019 14:35:33 -79.42, 158.51 110.88 08/25/2019 14:36:15 -79.44, 158.40 110.86 3.29 42
3 08/25/2019 15:26:39 79.42, -34.29 69.14 08/25/2019 15:26:56 79.43, -34.37 69.14 1.74 17
4 08/25/2019 16:17:34 -79.43, 132.95 110.86 08/25/2019 16:17:37 -79.43, 132.95 110.85 0.03 3
5 08/25/2019 17:08:40 79.43, -59.85 69.16 08/25/2019 17:08:18 79.41, -59.82 69.15 1.82 22
6 08/25/2019 17:59:35 -79.43, 107.38 110.83 08/25/2019 17:58:59 -79.41, 107.50 110.85 3.26 36
7 08/25/2019 18:50:40 79.41, -85.14 69.18 08/25/2019 18:49:40 79.40, -85.27 69.15 2.83 60




NCC Satellite Simultaneous Nadir Overpasses (SNOs) Prediction Service
